Dilworth, MN

9:50 PM CST on February 11, 2016 (GMT -0600)
Moorhead Municipal

Weather History for KJKJ - December, 2012

Change the Weather History Date:

Saturday, December 29, 2012

  Actual Average (KFAR) Record (KFAR)
Temperature  
Mean Temperature 0 °F 10 °F  
Max Temperature 6 °F 19 °F 52 °F (1999)
Min Temperature -5 °F 2 °F -36 °F (1887)
Degree Days  
Heating Degree Days 64 55  
Month to date heating degree days 1469  
Since 1 July heating degree days 3431  
Cooling Degree Days 0 0  
Month to date cooling degree days 0  
Year to date cooling degree days 551  
Moisture  
Dew Point 1 °F    
Average Humidity 93    
Maximum Humidity 100    
Minimum Humidity 85    
Precipitation  
Precipitation 0.00 in 0.03 in 0.42 in (1972)
Month to date precipitation 0.78  
Year to date precipitation 22.56  
Snow  
Snow 0.00 in 0.40 in 4.40 in (1972)
Month to date snowfall 10.4  
Since 1 July snowfall 19.0  
Snow Depth -    
Sea Level Pressure  
Sea Level Pressure 30.07 in    
Wind  
Wind Speed 4 mph (SW)    
Max Wind Speed 8 mph    
Max Gust Speed -    
Visibility 9 miles    
Events Snow    
T = Trace of Precipitation, MM = Missing Value Source: NWS Daily Summary

Daily Weather History Graph

Daily Weather History Graph

Search for Another Location

Airport or City:

Trip Planner

Search our weather history database for the weather conditions in past years. The results will help you decide how hot, cold, wet, or windy it might be!

Date:

Astronomy

Dec. 29, 2012 Rise Set
Actual Time 8:11 AM CST 4:46 PM CST
Civil Twilight 7:36 AM CST 5:21 PM CST
Nautical Twilight 6:57 AM CST 6:00 PM CST
Astronomical Twilight 6:20 AM CST 6:37 PM CST
Moon 6:27 PM CST (12/29) 8:40 AM CST (12/29)
Length of Visible Light 9h 45m
Length of Day
8h 34m
Full, 98% of the Moon is Illuminated
Dec 29
Full
Jan 4
Last Quarter
Jan 11
New
Jan 18
First Quarter
Jan 26
Full

Hourly Weather History & Observations

Time (CST) Temp. Windchill Dew Point Humidity Pressure Visibility Wind Dir Wind Speed Gust Speed Precip Events Conditions
12:15 AM 6.8 °F -0.1 °F 6.8 °F 100% 30.04 in 10.0 mi SSW 3.5 mph - N/A   Mostly Cloudy
12:35 AM 6.8 °F -2.0 °F 6.8 °F 100% 30.04 in 10.0 mi SSW 4.6 mph - N/A   Overcast
12:55 AM 5.0 °F -4.1 °F 3.2 °F 92% 30.04 in 10.0 mi SSW 4.6 mph - N/A   Scattered Clouds
1:14 AM 3.2 °F -4.2 °F 1.4 °F 92% 30.04 in 10.0 mi SSW 3.5 mph - N/A   Scattered Clouds
1:35 AM 3.2 °F -4.2 °F 1.4 °F 92% 30.04 in 10.0 mi SSW 3.5 mph - N/A   Clear
1:55 AM 1.4 °F -8.3 °F -0.4 °F 92% 30.04 in 10.0 mi SW 4.6 mph - N/A   Scattered Clouds
2:14 AM 1.4 °F -8.3 °F -0.4 °F 92% 30.04 in 10.0 mi SW 4.6 mph - N/A   Clear
2:35 AM 1.4 °F -6.2 °F -0.4 °F 92% 30.04 in 10.0 mi SW 3.5 mph - N/A   Clear
2:55 AM 1.4 °F -8.3 °F -0.4 °F 92% 30.04 in 10.0 mi SW 4.6 mph - N/A   Scattered Clouds
3:14 AM 1.4 °F - 1.4 °F 100% 30.04 in 10.0 mi Calm Calm - N/A   Mostly Cloudy
3:35 AM 1.4 °F -8.3 °F 1.4 °F 100% 30.04 in 10.0 mi SW 4.6 mph - N/A   Overcast
3:55 AM 1.4 °F -6.2 °F -0.4 °F 92% 30.04 in 10.0 mi WSW 3.5 mph - N/A   Mostly Cloudy
4:14 AM -0.4 °F -10.4 °F -0.4 °F 100% 30.04 in 10.0 mi WSW 4.6 mph - N/A   Scattered Clouds
4:35 AM -0.4 °F -10.4 °F -2.2 °F 92% 30.04 in 10.0 mi WSW 4.6 mph - N/A   Clear
4:55 AM -0.4 °F -10.4 °F -2.2 °F 92% 30.04 in 10.0 mi WSW 4.6 mph - N/A   Clear
5:14 AM -0.4 °F -8.3 °F -2.2 °F 92% 30.04 in 10.0 mi WSW 3.5 mph - N/A   Clear
5:35 AM -0.4 °F -10.4 °F -2.2 °F 92% 30.03 in 10.0 mi WSW 4.6 mph - N/A   Clear
5:55 AM -2.2 °F -12.5 °F -4.0 °F 92% 30.03 in 10.0 mi WSW 4.6 mph - N/A   Clear
6:14 AM -0.4 °F -8.3 °F -2.2 °F 92% 30.03 in 10.0 mi WSW 3.5 mph - N/A   Clear
6:35 AM -0.4 °F -10.4 °F -2.2 °F 92% 30.04 in 10.0 mi WSW 4.6 mph - N/A   Clear
6:54 AM -2.2 °F -14.2 °F -5.8 °F 85% 30.04 in 10.0 mi SW 5.8 mph - N/A   Clear
7:15 AM -2.2 °F -12.5 °F -2.2 °F 100% 30.04 in 10.0 mi WSW 4.6 mph - N/A   Clear
7:35 AM -2.2 °F -10.4 °F -4.0 °F 92% 30.05 in 10.0 mi WSW 3.5 mph - N/A   Clear
7:54 AM -4.0 °F -12.4 °F -5.8 °F 92% 30.05 in 10.0 mi WSW 3.5 mph - N/A   Clear
8:15 AM -5.8 °F -16.7 °F -7.6 °F 92% 30.06 in 10.0 mi WSW 4.6 mph - N/A   Clear
8:35 AM -4.0 °F -16.3 °F -7.6 °F 85% 30.07 in 10.0 mi West 5.8 mph - N/A   Scattered Clouds
8:54 AM -0.4 °F -8.3 °F -2.2 °F 92% 30.07 in 10.0 mi WSW 3.5 mph - N/A   Mostly Cloudy
9:15 AM 1.4 °F -9.9 °F -0.4 °F 92% 30.07 in 10.0 mi West 5.8 mph - N/A   Overcast
9:35 AM 3.2 °F -7.8 °F 1.4 °F 92% 30.08 in 10.0 mi West 5.8 mph - N/A   Overcast
9:55 AM 1.4 °F -8.3 °F 1.4 °F 100% 30.08 in 10.0 mi West 4.6 mph - N/A   Overcast
10:15 AM 3.2 °F -4.2 °F 1.4 °F 92% 30.08 in 7.0 mi West 3.5 mph - N/A Snow Light Snow
10:35 AM 3.2 °F -4.2 °F 1.4 °F 92% 30.09 in 5.0 mi West 3.5 mph - N/A Snow Light Snow
10:55 AM 3.2 °F - 1.4 °F 92% 30.09 in 7.0 mi Calm Calm - N/A   Overcast
11:15 AM 5.0 °F - 3.2 °F 92% 30.09 in 2.5 mi Calm Calm - N/A Snow Light Snow
11:34 AM 3.2 °F -6.2 °F 3.2 °F 100% 30.08 in 2.5 mi NW 4.6 mph - N/A Snow Light Snow
11:55 AM 3.2 °F - 1.4 °F 92% 30.08 in 10.0 mi Calm Calm - N/A   Scattered Clouds
12:15 PM 5.0 °F - 3.2 °F 92% 30.07 in 10.0 mi Calm Calm - N/A   Clear
12:55 PM 5.0 °F - 3.2 °F 92% 30.08 in 10.0 mi Calm Calm - N/A   Clear
1:15 PM 6.8 °F - 3.2 °F 85% 30.07 in 10.0 mi Calm Calm - N/A   Clear
1:35 PM 6.8 °F - 5.0 °F 92% 30.07 in 10.0 mi Calm Calm - N/A   Clear
1:55 PM 6.8 °F - 5.0 °F 92% 30.07 in 10.0 mi Calm Calm - N/A   Clear
2:15 PM 6.8 °F - 5.0 °F 92% 30.07 in 10.0 mi Calm Calm - N/A   Clear
2:35 PM 6.8 °F -0.1 °F 5.0 °F 92% 30.07 in 10.0 mi SW 3.5 mph - N/A   Clear
2:55 PM 6.8 °F -0.1 °F 5.0 °F 92% 30.07 in 7.0 mi WSW 3.5 mph - N/A   Mostly Cloudy
3:15 PM 6.8 °F -2.0 °F 5.0 °F 92% 30.08 in 3.0 mi West 4.6 mph - N/A Snow Light Snow
3:35 PM 6.8 °F - 3.2 °F 85% 30.09 in 7.0 mi Calm Calm - N/A   Mostly Cloudy
3:55 PM 5.0 °F - 3.2 °F 92% 30.09 in 10.0 mi Calm Calm - N/A   Scattered Clouds
4:14 PM 6.8 °F - 5.0 °F 92% 30.09 in 10.0 mi Calm Calm - N/A   Clear
4:35 PM 5.0 °F - 3.2 °F 92% 30.08 in 10.0 mi Calm Calm - N/A   Clear
5:14 PM 1.4 °F -6.2 °F -0.4 °F 92% 30.09 in 10.0 mi WSW 3.5 mph - N/A   Clear
5:35 PM 1.4 °F -9.9 °F -0.4 °F 92% 30.10 in 10.0 mi WSW 5.8 mph - N/A   Clear
5:55 PM -0.4 °F -10.4 °F -2.2 °F 92% 30.10 in 10.0 mi WSW 4.6 mph - N/A   Mostly Cloudy
6:15 PM -0.4 °F -10.4 °F -2.2 °F 92% 30.10 in 10.0 mi SW 4.6 mph - N/A   Scattered Clouds
6:35 PM 1.4 °F -6.2 °F -0.4 °F 92% 30.10 in 10.0 mi WSW 3.5 mph - N/A   Clear
6:54 PM 1.4 °F -8.3 °F -0.4 °F 92% 30.10 in 10.0 mi SW 4.6 mph - N/A   Clear
7:15 PM 1.4 °F -9.9 °F -0.4 °F 92% 30.10 in 10.0 mi SW 5.8 mph - N/A   Clear
7:35 PM 1.4 °F -6.2 °F -0.4 °F 92% 30.10 in 10.0 mi SSW 3.5 mph - N/A   Clear
7:55 PM -0.4 °F - -2.2 °F 92% 30.10 in 10.0 mi Calm Calm - N/A   Clear
8:15 PM -0.4 °F -10.4 °F -2.2 °F 92% 30.10 in 10.0 mi SSW 4.6 mph - N/A   Clear
8:35 PM 1.4 °F - -0.4 °F 92% 30.09 in 10.0 mi Calm Calm - N/A   Mostly Cloudy
8:54 PM -0.4 °F -8.3 °F -2.2 °F 92% 30.09 in 10.0 mi South 3.5 mph - N/A   Overcast
9:15 PM 1.4 °F -6.2 °F 1.4 °F 100% 30.09 in 10.0 mi South 3.5 mph - N/A   Overcast
9:35 PM 3.2 °F - 1.4 °F 92% 30.10 in 10.0 mi Calm Calm - N/A   Overcast
9:54 PM 3.2 °F -4.2 °F 1.4 °F 92% 30.10 in 10.0 mi SSW 3.5 mph - N/A   Mostly Cloudy
10:15 PM 3.2 °F -7.8 °F 1.4 °F 92% 30.10 in 10.0 mi SSE 5.8 mph - N/A   Mostly Cloudy
10:34 PM 3.2 °F -9.1 °F 3.2 °F 100% 30.10 in 10.0 mi South 6.9 mph - N/A   Mostly Cloudy
10:55 PM 5.0 °F -4.1 °F 3.2 °F 92% 30.10 in 10.0 mi South 4.6 mph - N/A   Overcast
11:15 PM 6.8 °F -2.0 °F 5.0 °F 92% 30.10 in 10.0 mi South 4.6 mph - N/A   Overcast
11:35 PM 6.8 °F -4.8 °F 5.0 °F 92% 30.10 in 10.0 mi SSE 6.9 mph - N/A   Overcast
11:55 PM 6.8 °F -5.9 °F 6.8 °F 100% 30.09 in 10.0 mi South 8.1 mph - N/A   Overcast